Simultaneous Nadir Overpasses (SNOs) Predictions

Prediction of SNOs between METOP-A and NPP Satellite Orbit:

Table of predicted SNOs for the next 14.0 days since TLE Epoch: 12/31/2021
Index Date (METOP-A) Time (METOP-A) Lat,Lon (METOP-A) SZA (METOP-A ) Date (NPP) Time (NPP) Lat,Lon (NPP) SZA (NPP ) Distance(km) Time Diff (sec)
1 12/31/2021 19:14:11 -79.01, -42.39 62.77 12/31/2021 19:14:10 -79.01, -42.39 62.77 0.09 1
2 12/31/2021 20:02:58 81.35, 163.95 110.69 12/31/2021 20:02:57 81.35, 163.96 110.69 0.07 1
3 12/31/2021 20:53:43 -81.35, -28.99 69.28 12/31/2021 20:53:42 -81.35, -28.99 69.28 0.07 1
4 12/31/2021 21:44:26 81.35, 138.41 110.72 12/31/2021 21:44:25 81.35, 138.42 110.72 0.07 1
5 12/31/2021 22:35:10 -81.35, -54.14 69.31 12/31/2021 22:35:09 -81.35, -54.13 69.31 0.07 1
6 12/31/2021 23:25:54 81.35, 112.87 110.74 12/31/2021 23:25:53 81.35, 112.88 110.74 0.07 1
7 01/01/2022 00:16:38 -81.35, -79.68 69.29 01/01/2022 00:16:37 -81.35, -79.67 69.29 0.07 1
8 01/01/2022 01:07:21 81.35, 87.73 110.70 01/01/2022 01:07:20 81.35, 87.73 110.70 0.07 1
9 01/01/2022 01:58:05 -81.35,-104.82 69.33 01/01/2022 01:58:04 -81.35,-104.82 69.33 0.07 1
10 01/01/2022 02:48:49 81.35, 62.19 110.72 01/01/2022 02:48:48 81.35, 62.19 110.72 0.07 1
11 01/01/2022 03:39:33 -81.35,-130.36 69.31 01/01/2022 03:39:32 -81.35,-130.36 69.31 0.07 1
12 01/01/2022 04:30:16 81.35, 37.05 110.68 01/01/2022 04:30:15 81.35, 37.05 110.68 0.07 1
13 01/01/2022 05:21:01 -81.35,-155.90 69.29 01/01/2022 05:21:00 -81.35,-155.89 69.29 0.07 1
14 01/01/2022 06:11:44 81.35, 11.51 110.70 01/01/2022 06:11:43 81.35, 11.51 110.70 0.07 1
15 01/01/2022 07:02:28 -81.35, 178.96 69.32 01/01/2022 07:02:27 -81.35, 178.96 69.32 0.07 1
16 01/01/2022 07:53:11 81.35, -13.64 110.67 01/01/2022 07:53:10 81.35, -13.63 110.67 0.07 1
17 01/01/2022 08:43:56 -81.35, 153.42 69.30 01/01/2022 08:43:55 -81.35, 153.42 69.30 0.07 1
18 01/01/2022 09:34:39 81.35, -39.18 110.69 01/01/2022 09:34:38 81.35, -39.17 110.69 0.07 1
19 01/01/2022 10:25:23 -81.35, 128.27 69.34 01/01/2022 10:25:22 -81.35, 128.28 69.34 0.07 1
20 01/01/2022 11:16:06 81.35, -64.32 110.65 01/01/2022 11:16:05 <
